Hourly Weather Roundup
Issued by NWS Central Illinois

Home | Current Version | Previous Version | Text Only | Print | Product List | Glossary Off
Versions: 1 2 3 4 5 6 7 8 9 10 11 12 13 14 15 16 17 18 19 20 21 22 23 24 25 26 27 28 29 30 31 32 33 34 35 36 37 38 39 40 41 42 43 44 45 46 47 48 49 50

000
NZUS43 KILX 241210
HWRILX

AREA WEATHER ROUNDUP
NATIONAL WEATHER SERVICE, LINCOLN IL
700 AM CDT THU JUL 24 2014


CITY           SKY/WX    TMP DP  RH WIND       PRES   REMARKS
BLOOMINGTON    SUNNY     55  50  83 NE10      30.16S
CHAMPAIGN      MOSUNNY   59  55  87 N13       30.13R
6HR MIN TEMP:  56; 6HR MAX TEMP:  59;

DECATUR        SUNNY     57  55  94 N9        30.14R
FLORA          SUNNY     56  52  89 N9        30.10R
6HR MIN TEMP:  55; 6HR MAX TEMP:  57;

GALESBURG      CLOUDY    60  54  82 NE6       30.17S
JACKSONVILLE   SUNNY     61  55  79 N5        30.16R
6HR MIN TEMP:  56; 6HR MAX TEMP:  61;

LACON          SUNNY     56  52  85 CALM      30.17R
6HR MIN TEMP:  54; 6HR MAX TEMP:  56;

LAWRENCEVILLE  MOSUNNY   60  55  83 N9        30.07R
6HR MIN TEMP:  56; 6HR MAX TEMP:  60;

LITCHFIELD     SUNNY     56  52  86 N7        30.14R
$$


CITY           SKY/WX    TMP DP  RH WIND       PRES   REMARKS
LINCOLN        SUNNY     57  52  84 N5        30.14R
6HR MIN TEMP:  55; 6HR MAX TEMP:  60;

MACOMB         SUNNY     55  54  95 N3        30.19R
MATTOON        SUNNY     55  52  89 N7        30.11R
6HR MIN TEMP:  51; 6HR MAX TEMP:  57;

MT CARMEL AP   MOSUNNY   59  55  88 N6        30.06S
OLNEY-NOBLE AP SUNNY     55  54  94 CALM      30.09R
PARIS          PTSUNNY   56  55  95 N3        30.12R
6HR MIN TEMP:  53; 6HR MAX TEMP:  56;

PEORIA         SUNNY     61  52  72 CALM      30.17R
6HR MIN TEMP:  58; 6HR MAX TEMP:  64;

PONTIAC        SUNNY     57  55  94 N7        30.16R
RANTOUL        MOSUNNY   59  54  83 N10       30.14S
6HR MIN TEMP:  58; 6HR MAX TEMP:  59;

ROBINSON       MOSUNNY   59  57  92 CALM      30.09R
6HR MIN TEMP:  57; 6HR MAX TEMP:  59;

SPRINGFIELD    SUNNY     59  52  77 N6        30.16R
6HR MIN TEMP:  57; 6HR MAX TEMP:  61;

TAYLORVILLE    SUNNY     54  52  94 N6        30.14R
$$

...REGIONAL REPORTS...


CITY           SKY/WX    TMP DP  RH WIND       PRES   REMARKS
CHICAGO O`HARE MOSUNNY   59  50  72 N7        30.17R
KANKAKEE       SUNNY     60  57  88 N6        30.16R
MOLINE         PTSUNNY   58  55  90 CALM      30.18R
MOUNT VERNON   SUNNY     57  48  72 N6        30.10R
PITTSFIELD     SUNNY     58  55  90 CALM      30.16S
QUINCY         SUNNY     59  55  87 CALM      30.16R
ROCKFORD       MOSUNNY   58  52  80 NE3       30.21S
$$


CITY           SKY/WX    TMP DP  RH WIND       PRES   REMARKS
BURLINGTON     SUNNY     62  56  80 E3        30.17R
CEDAR RAPIDS   SUNNY     60  57  89 SE3       30.17R
DES MOINES     CLEAR     66  60  81 CALM      30.15S
KIRKSVILLE     CLEAR     60  57  89 CALM      30.18R
OTTUMWA        CLEAR     60  57  89 NE6       30.16R
ST LOUIS       SUNNY     63  54  72 N5        30.14R
$$


CITY           SKY/WX    TMP DP  RH WIND       PRES   REMARKS
TERRE HAUTE    PTSUNNY   58  54  86 N6        30.09R
EVANSVILLE     PTSUNNY   60  53  77 N7        30.05R
INDIANAPOLIS   MOSUNNY   61  57  87 NE9       30.08R
LAFAYETTE      CLOUDY    58  56  93 N3        30.12R
MADISON        MOSUNNY   58  52  80 CALM      30.20R
MILWAUKEE      MOSUNNY   59  51  75 N6        30.20R
$$




USA.gov is the U.S. government's official web portal to all federal, state and local government web resources and services.